Regional Weather Roundup
Issued by NWS

Home | Current Version | Previous Version | Graphics & Text | Print | Product List | Glossary Off
Versions: 1 2 3 4 5 6 7 8 9 10 11 12 13 14 15 16 17 18 19 20 21 22 23 24 25 26 27 28 29 30 31 32 33 34 35 36 37 38 39 40 41 42 43 44 45 46 47 48 49 50

000
ASUS43 KMKX 161800
RWRWI

WISCONSIN REGIONAL WEATHER ROUNDUP
NATIONAL WEATHER SERVICE MILWAUKEE/SULLIVAN WI
1200 PM CST TUE JAN 16 2018

NOTE: "FAIR" INDICATES FEW OR NO CLOUDS BELOW 12,000 FEET WITH NO
SIGNIFICANT WEATHER AND/OR OBSTRUCTIONS TO VISIBILITY.

WIZ001-002-006>008-014>016-023>028-161900-
NORTHWEST WISCONSIN

CITY           SKY/WX    TMP DP  RH WIND       PRES   REMARKS
SUPERIOR ARPT  FAIR       6  -2  67 W6        30.64F WCI  -4
ASHLAND        FAIR      12   6  77 SW7       30.57F WCI   1
6HR MIN TEMP:   9; 6HR MAX TEMP:  17; 6HR PCP: TRACE;

HAYWARD        FAIR      12   5  73 VRB3      30.56F
6HR MIN TEMP:   6; 6HR MAX TEMP:  12; 6HR PCP: TRACE;

SIREN          CLOUDY     5   0  77 W3        30.63F
CUMBERLAND     FLURRIES   9   3  78 NW7       30.58F WCI  -3
RICE LAKE      FLURRIES  10   5  80 CALM      30.61F
CHETEK         FAIR      11   5  75 W6        30.59F WCI   2
LADYSMITH      FAIR      16   9  75 NW7       30.55F WCI   6
6HR MIN TEMP:   5; 6HR MAX TEMP:  16;

EAU CLAIRE     NOT AVBL
MENOMONIE      FLURRIES  11   6  80 W12       30.62F WCI  -3
6HR MIN TEMP:   2; 6HR MAX TEMP:  11;

NEW RICHMOND   PTSUNNY    4  -1  78 NW8       30.64F WCI  -9
OSCEOLA        CLOUDY     4  -2  77 W5        30.69F WCI  -6
$$

WIZ003>005-009-010-017-018-161900-
NORTH CENTRAL WISCONSIN

CITY           SKY/WX    TMP DP  RH WIND       PRES   REMARKS
MANITOWISH WTR CLOUDY    16  11  82 N5        30.47F WCI   9
ARBOR VITAE    FLURRIES  18  14  85 N8        30.46F WCI   8
WOODRUFF       FLURRIES  18  14  85 N8        30.46F WCI   8
RHINELANDER    CLOUDY    19  10  68 N9        30.45F WCI   8
6HR MIN TEMP:   7; 6HR MAX TEMP:  19; 6HR PCP: TRACE;

EAGLE RIVER    LGT SNOW  17  10  76 NW9       30.44F WCI   5
6HR MIN TEMP:  -4; 6HR MAX TEMP:  18;

LAND O LAKES   LGT SNOW  17  11  78 N8G16     30.46F WCI   6
PHILLIPS       FAIR      17  11  75 N5        30.48F WCI  10
6HR MIN TEMP:   2; 6HR MAX TEMP:  18;

TOMAHAWK       FAIR      19   9  64 N9        30.48F WCI   9
MEDFORD        FAIR      18  10  73 N12       30.48F WCI   5
MERRILL        FAIR      20  10  65 N10G17    30.48F WCI   9
6HR MIN TEMP:  -4; 6HR MAX TEMP:  21;

$$

WIZ029-030-035-036-043>047-161900-
CENTRAL WISCONSIN

CITY           SKY/WX    TMP DP  RH WIND       PRES   REMARKS
WAUSAU         FAIR      20  10  65 N8        30.46F WCI  10
6HR MIN TEMP:   4; 6HR MAX TEMP:  20; 6HR PCP: TRACE;

MOSINEE        MOSUNNY   18  10  73 N10       30.49F WCI   6
MARSHFIELD     FAIR      18  11  74 NW8       30.48F WCI   8
6HR MIN TEMP:  -2; 6HR MAX TEMP:  19;

STEVENS POINT  FAIR      19  11  69 N10G17    30.50S WCI   8
WAUPACA        FAIR      25  13  60 N8        30.50F WCI  16
WAUTOMA        FAIR      25  13  60 NW8       30.50F WCI  16
6HR MIN TEMP:   6; 6HR MAX TEMP:  26;

WISC RAPIDS    FAIR      20  11  68 N9        30.51F WCI   9
6HR MIN TEMP:   2; 6HR MAX TEMP:  20;

CAMP DOUGLAS   MOSUNNY   18  10  73 W9        30.53F WCI   6
$$

WIZ011>013-019>022-031-037>040-048>050-161900-
NORTHEAST WISCONSIN

CITY           SKY/WX    TMP DP  RH WIND       PRES   REMARKS
ANTIGO         PTSUNNY   16  10  78 N14       30.45F WCI   1
SHAWANO        CLOUDY    23  14  67 CALM      30.48F
6HR MIN TEMP:   6; 6HR MAX TEMP:  24;

OCONTO         CLOUDY    19  11  71 N6        30.49F WCI  11
STURGEON BAY   FAIR      18  11  74 NW9       30.48F WCI   7
6HR MIN TEMP:   4; 6HR MAX TEMP:  18; 6HR PCP: TRACE;

GREEN BAY      FAIR      21  10  62 NW6       30.48F WCI  13
6HR MIN TEMP:   6; 6HR MAX TEMP:  21;

MANITOWOC      FAIR      21  10  62 NW14      30.47F WCI   8
6HR MIN TEMP:   9; 6HR MAX TEMP:  21; 6HR PCP: TRACE;

APPLETON       MOSUNNY   18   9  68 NW7       30.47F WCI   8
CLINTONVILLE   FAIR      21  12  68 N6        30.49F WCI  14
OSHKOSH        FAIR      19  10  68 N8        30.48F WCI   9
6HR MIN TEMP:   9; 6HR MAX TEMP:  19;

$$

WIZ032>034-041-042-053>061-161900-
SOUTHWEST WISCONSIN

CITY           SKY/WX    TMP DP  RH WIND       PRES   REMARKS
LA CROSSE      CLOUDY    12   4  70 NW9       30.62F WCI   0
6HR MIN TEMP:   1; 6HR MAX TEMP:  12;

SPARTA         FLURRIES  12   8  81 W6        30.59S WCI   3
VIROQUA        CLOUDY    12   9  87 NW10      30.53F WCI  -2
6HR MIN TEMP:   4; 6HR MAX TEMP:  12;

BOSCOBEL       FAIR      18   9  68 NW6       30.58F WCI  10
6HR MIN TEMP:  -2; 6HR MAX TEMP:  18;

PRAIRIE DU CHI FAIR      12   3  67 NW9       30.61F WCI   0
PLATTEVILLE    FAIR      15  10  83 NW12      30.54F WCI   1
$$

WIZ056-057-062-063-064-067-068-161900-
SOUTH CENTRAL WISCONSIN

CITY           SKY/WX    TMP DP  RH WIND       PRES   REMARKS
REEDSBURG      FAIR      17  10  74 N8        30.52F WCI   7
BARABOO/DELLS  FAIR      18  10  71 NW3       30.52F
LONE ROCK      PTSUNNY   17  10  74 W7        30.56F WCI   8
MINERAL POINT  FAIR      18  12  79 NW6       30.52S WCI   9
MADISON        FAIR      18   9  68 NW10      30.50F WCI   6
6HR MIN TEMP:  10; 6HR MAX TEMP:  18; 6HR PCP: TRACE;

MIDDLETON      FAIR      20  11  68 NW6       30.52F WCI  13
WATERTOWN      FAIR      18  10  72 NW9       30.48F WCI   6
MONROE         FAIR      19  10  68 NW6       30.49F WCI  11
JANESVILLE     MOSUNNY   19  10  68 NW14      30.49F WCI   6
$$

WIZ051-052-058>065-066-070>072-161900-
SOUTHEAST WISCONSIN

CITY           SKY/WX    TMP DP  RH WIND       PRES   REMARKS
MILWAUKEE      PTSUNNY   22  11  62 NW13G22   30.44F WCI  10
6HR MIN TEMP:  19; 6HR MAX TEMP:  22; 6HR PCP:  0.02;

WAUKESHA       PTSUNNY   19   9  63 NW14      30.46F WCI   6
MILWAUKEE/TIMM CLOUDY    21   7  53 NW9       30.46F WCI  11
RACINE         FLURRIES  22  13  68 NW13      30.45F WCI  10
6HR MIN TEMP:  18; 6HR MAX TEMP:  22; 6HR PCP:  0.02;

BURLINGTON     FAIR      21   9  59 N14       30.46F WCI   8
KENOSHA        PTSUNNY   21  10  62 NW9       30.44F WCI  11
6HR MIN TEMP:  16; 6HR MAX TEMP:  22; 6HR PCP: TRACE;

FOND DU LAC    FAIR      18   8  65 N8        30.48F WCI   8
6HR MIN TEMP:  10; 6HR MAX TEMP:  18; 6HR PCP: TRACE;

SHEBOYGAN      FAIR      20   9  62 N15       30.45F WCI   6
6HR MIN TEMP:  11; 6HR MAX TEMP:  20; 6HR PCP: TRACE;

WEST BEND      PTSUNNY   19   9  63 NW7       30.45F WCI  10
JUNEAU         FAIR      16   9  74 NW8       30.49F WCI   5
$$

LSZ147-162-161900-
LAKE SUPERIOR

STATION/POSITION TIME  TEMP    WIND        PRES    WAVE
                       AIR SEA DIR/SP/G            HT/PER
                 (UTC) (F)     (DEG/KT/KT) (MB)    (FT/S)
DEVILS ISLAND    1700   15     250/ 15/ 19 1037.1F
SAXON HARBOR     1730   17     280/  6/ 10 1034.5F
$$

LMZ867-665-643>646-161900-
LAKE MICHIGAN

STATION/POSITION TIME  TEMP    WIND        PRES    WAVE
                       AIR SEA DIR/SP/G            HT/PER
                 (UTC) (F)     (DEG/KT/KT) (MB)    (FT/S)
NORTHPORT PIER   1740   16     310/ 13/ 18 1031.8F
KEWAUNEE LAKESHO 1730   19     330/  8/ 13 1031.0F
SHEBOYGAN LAKESH 1700   19     340/ 13/ 15 1032.8R
PORT WASHINGTON  1730   21     320/  8/ 11 1032.2F
MILWAUKEE LAKESH 1730   21     340/ 14/ 17   N/A
KENOSHA   LAKESH 1700   20     330/ 15/ 18 1031.2
$$

TC  - TEMPERATURE IN CELSIUS
VSB - VISIBILITY IN STATUTE MILES
WCI - WIND CHILL INDEX
HX  - HEAT INDEX





USA.gov is the U.S. government's official web portal to all federal, state and local government web resources and services.